STARLINK-3867, 52587

Orbit data source: Space-Track

STARLINK-3867, 52587 is a payload satellite owned by SpaceX/Seattle (US) in LEO that was launched on Fri, 13 May 2022 UTC via an FALCON 9 launch vehicle from the Air Force Western Test Range (AFWTR). Payload-class satellites include a variety of spacecraft equipped with specific instruments for various scientific and technological missions. These include communications satellites like Starlink; space stations such as the ISS; scientific satellites like the Hubble; Earth observation satellites from companies like Planet Labs, Umbra, and HawkEye 360; GPS; miniature CubeSats for education and research; and military/defense satellites.

Loading next visibility...
Identifier
52587, 2022-051BD
Orbit
LEO
Country
Flag of USUS
Related business
Manufacturer
SpaceX/Seattle
Mission
Operational Commercial Communications
Bus & Motor
STARLINK, Unknown motor
Mass
297 kg wet, ~275 kg dry
Launch date (UTC)
2022-05-13 (4 years ago)
Launch vehicle
FALCON 9
Launch site
Air Force Western Test Range (AFWTR)
Object type
Payload
Rocket body
Debris
Shape & HBR
Box + 1 Pan, 10.1 m
Radar Cross Section
13.562 m², Large (>1 m²)

Expand to show TLE details & history
Last TLE update: 2 days ago

TLE from 2 days ago
0 STARLINK-3867
1 52587U 22051BD  26171.41668980  .00074279  00000-0  41455-2 0  9996
2 52587  53.1604  17.6736 0002498  88.2010 103.5660 15.12891439  5773
Epoch: 2026-06-20T10:00Z
TLE epoch observation values (Epoch: 2026-06-20T10:00:01.998Z)
Latitude
-9.54944°
Longitude
146.23412°
Altitude
530.416 km
Speed
7.598 km/s
True Right ascension
13h 39m 29s
True Declination
-9° 29' 29"
Sunlit
Object was in full shadow at epoch
Visualization orbit readout
Latitude
Unknown
Longitude
Unknown
Altitude
Unknown
Speed
Unknown
Apparent Right ascension
Unknown
Apparent Declination
Unknown
Sunlit
N/A
Visualization observer readout
Local Sidereal Time
21:32:22
Azimuth
Unknown
Elevation
Unknown
Doppler factor
Unknown
Orbital elements
Apogee altitude
529.367 km
Perigee altitude
525.917 km
Semi-major axis
6,905.779 km
Eccentricity
0.00025
Inclination
53.1604°
RAAN
17.6736°
Arg. of periapsis
88.201°
True anomaly
103.59382°
Mean anomaly
103.566°
Eccentric anomaly
103.57991°
Mean motion
3.78202 °/min
Orbital period
95.19 mins
BSTAR
0.0041455
Loading maneuver chart data...
Computing Atmospheric mass density...
Loading historical data...
Loading historical data...
Loading historical data...
Loading historical data...
Loading historical data...
Loading historical data...
Loading historical data...

Documentation

Showing up to 5 results
|